North Bend, OR

6:14 AM PST on February 25, 2017 (GMT -0800)
North Bend Municipal

Weather History for KOTH - March, 2014

Change the Weather History Date:

Tuesday, March 4, 2014

  Actual Average Record
Temperature  
Mean Temperature 57 °F 47 °F  
Max Temperature 61 °F 54 °F 76 °F (1929)
Min Temperature 52 °F 41 °F 24 °F (1923)
Degree Days  
Heating Degree Days 8 18  
Month to date heating degree days 39 72  
Since 1 July heating degree days 2836 3246  
Cooling Degree Days 0 0  
Month to date cooling degree days 0 0  
Year to date cooling degree days 0 0  
Growing Degree Days 6 (Base 50)    
Moisture  
Dew Point 54 °F    
Average Humidity 93    
Maximum Humidity 100    
Minimum Humidity 72    
Precipitation  
Precipitation 0.05 in 0.27 in 1.35 in (1991)
Month to date precipitation 0.34 1.12  
Year to date precipitation 11.06 18.90  
Sea Level Pressure  
Sea Level Pressure 30.00 in    
Wind  
Wind Speed 5 mph (South)    
Max Wind Speed 15 mph    
Max Gust Speed 20 mph    
Visibility 9 miles    
Events      
T = Trace of Precipitation, MM = Missing Value Source: NWS Daily Summary

Daily Weather History Graph

Daily Weather History Graph

Search for Another Location

Airport or City:

Trip Planner

Search our weather history database for the weather conditions in past years. The results will help you decide how hot, cold, wet, or windy it might be!

Date:

Astronomy

Mar. 04, 2014 Rise Set
Actual Time 6:48 AM PST 6:09 PM PST
Civil Twilight 6:19 AM PST 6:38 PM PST
Nautical Twilight 5:46 AM PST 7:11 PM PST
Astronomical Twilight 5:13 AM PST 7:44 PM PST
Moon 8:30 AM PST (3/4) 10:31 PM PST (3/4)
Length of Visible Light 12h 18m
Length of Day
11h 21m
Waxing Crescent, 15% of the Moon is Illuminated
Mar 4
Waxing Crescent
Mar 8
First Quarter
Mar 16
Full
Mar 23
Last Quarter
Mar 30
New

Hourly Weather History & Observations

Time (PST) Temp. Dew Point Humidity Pressure Visibility Wind Dir Wind Speed Gust Speed Precip Events Conditions
12:15 AM 53.6 °F 53.6 °F 100% 30.03 in 10.0 mi Calm Calm - N/A   Overcast
12:35 AM 53.6 °F 51.8 °F 94% 30.02 in 5.0 mi Calm Calm - N/A   Overcast
12:55 AM 53.6 °F 51.8 °F 94% 30.02 in 8.0 mi Calm Calm - N/A   Overcast
1:15 AM 53.6 °F 53.6 °F 100% 30.03 in 4.0 mi Calm Calm - N/A   Overcast
1:35 AM 53.6 °F 53.6 °F 100% 30.03 in 5.0 mi Calm Calm - N/A   Overcast
1:55 AM 53.6 °F 53.6 °F 100% 30.04 in 9.0 mi SW 4.6 mph - N/A   Overcast
2:15 AM 53.6 °F 53.6 °F 100% 30.04 in 9.0 mi SSW 3.5 mph - N/A   Overcast
2:35 AM 53.6 °F 53.6 °F 100% 30.04 in 10.0 mi SSW 5.8 mph - N/A   Overcast
2:55 AM 53.6 °F 53.6 °F 100% 30.03 in 10.0 mi South 3.5 mph - N/A   Overcast
3:15 AM 53.6 °F 53.6 °F 100% 30.04 in 10.0 mi SSW 5.8 mph - N/A   Overcast
3:35 AM 53.6 °F 53.6 °F 100% 30.02 in 10.0 mi South 4.6 mph - N/A   Overcast
3:55 AM 53.6 °F 53.6 °F 100% 30.02 in 10.0 mi SSE 4.6 mph - N/A   Overcast
4:15 AM 53.6 °F 53.6 °F 100% 30.02 in 10.0 mi South 4.6 mph - N/A   Overcast
4:35 AM 53.6 °F 53.6 °F 100% 30.03 in 10.0 mi South 4.6 mph - N/A   Overcast
4:55 AM 53.6 °F 51.8 °F 94% 30.03 in 10.0 mi South 4.6 mph - N/A   Overcast
5:15 AM 53.6 °F 53.6 °F 100% 30.04 in 10.0 mi SSW 5.8 mph - N/A   Overcast
5:35 AM 53.6 °F 53.6 °F 100% 30.05 in 10.0 mi South 3.5 mph - N/A   Overcast
5:55 AM 53.6 °F 51.8 °F 94% 30.06 in 9.0 mi South 5.8 mph - N/A   Overcast
6:15 AM 53.6 °F 51.8 °F 94% 30.06 in 9.0 mi South 3.5 mph - N/A   Overcast
6:35 AM 53.6 °F 53.6 °F 100% 30.06 in 10.0 mi SE 5.8 mph - N/A   Overcast
6:55 AM 51.8 °F 51.8 °F 100% 30.06 in 10.0 mi SE 6.9 mph - N/A   Overcast
7:15 AM 51.8 °F 51.8 °F 100% 30.06 in 10.0 mi SE 6.9 mph - N/A   Overcast
7:35 AM 53.6 °F 53.6 °F 100% 30.06 in 10.0 mi SE 5.8 mph - N/A   Overcast
7:55 AM 53.6 °F 51.8 °F 94% 30.06 in 10.0 mi SSE 4.6 mph - N/A   Overcast
8:15 AM 53.6 °F 53.6 °F 100% 30.05 in 10.0 mi South 3.5 mph - N/A   Overcast
8:35 AM 55.4 °F 53.6 °F 94% 30.06 in 10.0 mi SE 3.5 mph - N/A   Overcast
8:55 AM 55.4 °F 53.6 °F 94% 30.06 in 10.0 mi SSE 3.5 mph - N/A   Overcast
9:15 AM 55.4 °F 53.6 °F 94% 30.05 in 10.0 mi SE 3.5 mph - N/A   Mostly Cloudy
9:35 AM 55.4 °F 53.6 °F 94% 30.05 in 10.0 mi Calm Calm - N/A   Mostly Cloudy
9:55 AM 57.2 °F 55.4 °F 94% 30.04 in 10.0 mi ESE 3.5 mph - N/A   Overcast
10:15 AM 57.2 °F 55.4 °F 94% 30.05 in 10.0 mi Calm Calm - N/A   Scattered Clouds
10:35 AM 60.8 °F 53.6 °F 77% 30.05 in 10.0 mi South 4.6 mph - N/A   Partly Cloudy
10:55 AM 60.8 °F 53.6 °F 77% 30.04 in 10.0 mi SSE 6.9 mph - N/A   Clear
11:15 AM 60.8 °F 53.6 °F 77% 30.04 in 10.0 mi SSW 3.5 mph - N/A   Clear
11:35 AM 59.0 °F 55.4 °F 88% 30.04 in 9.0 mi WNW 5.8 mph - N/A   Scattered Clouds
11:55 AM 59.0 °F 55.4 °F 88% 30.03 in 10.0 mi WNW 8.1 mph - N/A   Partly Cloudy
12:15 PM 57.2 °F 53.6 °F 88% 30.02 in 10.0 mi WNW 5.8 mph - N/A   Partly Cloudy
12:35 PM 57.2 °F 55.4 °F 94% 30.02 in 10.0 mi WNW 6.9 mph - N/A   Clear
12:55 PM 57.2 °F 55.4 °F 94% 30.01 in 10.0 mi West 5.8 mph - N/A   Clear
1:15 PM 59.0 °F 55.4 °F 88% 30.01 in 10.0 mi West 11.5 mph - N/A   Clear
1:35 PM 57.2 °F 55.4 °F 94% 30.01 in 10.0 mi West 9.2 mph - N/A   Clear
1:55 PM 57.2 °F 55.4 °F 94% 30.01 in 10.0 mi WSW 8.1 mph - N/A   Clear
2:15 PM 59.0 °F 55.4 °F 88% 30.01 in 10.0 mi West 6.9 mph - N/A   Clear
2:35 PM 60.8 °F 53.6 °F 77% 30.01 in 10.0 mi WSW 6.9 mph - N/A   Clear
2:55 PM 59.0 °F 53.6 °F 82% 30.01 in 10.0 mi WSW 15.0 mph - N/A   Clear
3:15 PM 60.8 °F 51.8 °F 72% 30.00 in 10.0 mi SW 10.4 mph 18.4 mph N/A   Clear
3:35 PM 59.0 °F 51.8 °F 77% 29.99 in 10.0 mi SW 15.0 mph 19.6 mph N/A   Scattered Clouds
3:55 PM 59.0 °F 51.8 °F 77% 29.99 in 10.0 mi SSW 5.8 mph - N/A   Partly Cloudy
4:15 PM 59.0 °F 51.8 °F 77% 29.98 in 10.0 mi South 5.8 mph - N/A   Clear
4:35 PM 59.0 °F 53.6 °F 82% 29.97 in 10.0 mi SE 4.6 mph - N/A   Clear
4:55 PM 59.0 °F 53.6 °F 82% 29.96 in 10.0 mi Calm Calm - N/A   Clear
5:15 PM 59.0 °F 53.6 °F 82% 29.95 in 10.0 mi Calm Calm - N/A   Clear
5:35 PM 57.2 °F 53.6 °F 88% 29.96 in 10.0 mi SW 10.4 mph - N/A   Partly Cloudy
5:55 PM 57.2 °F 53.6 °F 88% 29.95 in 10.0 mi SSW 6.9 mph - N/A   Scattered Clouds
6:15 PM 55.4 °F 53.6 °F 94% 29.93 in 10.0 mi South 3.5 mph - N/A   Scattered Clouds
6:35 PM 55.4 °F 53.6 °F 94% 29.94 in 10.0 mi WSW 4.6 mph - N/A   Scattered Clouds
6:55 PM 55.4 °F 53.6 °F 94% 29.94 in 10.0 mi South 4.6 mph - N/A   Partly Cloudy
7:15 PM 55.4 °F 53.6 °F 94% 29.95 in 10.0 mi Calm Calm - N/A   Scattered Clouds
7:35 PM 55.4 °F 53.6 °F 94% 29.95 in 10.0 mi Calm Calm - N/A   Overcast
7:55 PM 55.4 °F 53.6 °F 94% 29.95 in 10.0 mi Calm Calm - N/A   Overcast
8:15 PM 55.4 °F 53.6 °F 94% 29.93 in 8.0 mi Calm Calm - N/A   Overcast
8:35 PM 53.6 °F 53.6 °F 100% 29.93 in 8.0 mi Calm Calm - N/A   Overcast
8:55 PM 55.4 °F 55.4 °F 100% 29.93 in 9.0 mi Calm Calm - N/A   Overcast
9:15 PM 55.4 °F 55.4 °F 100% 29.93 in 10.0 mi Calm Calm - 0.01 in   Overcast
9:35 PM 53.6 °F 53.6 °F 100% 29.93 in 10.0 mi Calm Calm - 0.01 in   Overcast
9:55 PM 53.6 °F 53.6 °F 100% 29.92 in 4.0 mi ESE 4.6 mph - 0.02 in   Overcast
10:15 PM 53.6 °F 53.6 °F 100% 29.91 in 7.0 mi SSE 3.5 mph - 0.01 in   Overcast
10:35 PM 53.6 °F 53.6 °F 100% 29.91 in 8.0 mi SE 3.5 mph - 0.02 in   Overcast
10:55 PM 55.4 °F 53.6 °F 94% 29.90 in 8.0 mi SSE 4.6 mph - 0.03 in   Overcast
11:15 PM 55.4 °F 55.4 °F 100% 29.89 in 7.0 mi SSE 5.8 mph - N/A   Overcast
11:35 PM 55.4 °F 55.4 °F 100% 29.88 in 10.0 mi SE 6.9 mph - N/A   Overcast
11:55 PM 55.4 °F 55.4 °F 100% 29.88 in 9.0 mi SSE 5.8 mph - N/A   Overcast